Wetbulb
51.04 56.05 67.31 65.96 64.64 63.45 64.30 65.78 66.72 67.30 67.95 68.45 67.53 67.93 69.75 69.48 69.50 70.26 70.85 69.76 69.50 69.24 66.54 64.57 63.40 63.11 62.83 61.32 60.84 59.07 58.81 59.83 61.49 59.78 61.84 62.03 65.33 62.41 60.78 61.97 63.55 64.85 65.82
49.86 61.01 66.18 67.09 65.07 65.07 66.47 66.61 66.69 67.91 67.84 69.17 67.28 67.90 68.16 67.75 68.61 69.08 69.61 69.93 69.55 68.11 65.49 63.41 61.94 62.25 62.23 60.63 60.30 59.58 57.78 58.05 58.50 55.90 57.42 55.15 57.10 60.23 60.20 62.28 64.28 64.36 65.51
59.60 62.96 64.36 65.87 67.11 67.28 67.08 66.27 66.27 66.63 66.67 68.70 66.85 65.64 65.18 66.07 65.69 63.99 64.05 64.85 68.64 69.34 66.29 64.04 62.77 64.56 63.17 61.31 59.89 59.68 57.59 55.71 55.37 57.68 55.63 52.69 53.21 55.53 57.78 62.15 63.42 63.66 63.20
62.07 62.21 61.83 61.98 62.24 61.91 63.23 62.73 62.21 62.58 64.38 66.56 65.38 63.62 62.06 61.70 60.93 60.20 59.67 60.64 61.00 62.24 64.39 65.70 66.28 66.44 63.14 61.92 60.97 59.64 56.58 54.61 53.25 55.65 60.46 58.21 56.52 53.87 55.05 58.14 60.12 62.81 63.46
59.88 59.01 59.07 59.40 59.66 59.96 59.56 59.78 59.94 60.23 60.75 60.48 59.56 60.30 59.69 58.77 57.33 56.77 56.82 57.13 58.83 59.49 60.62 59.51 61.23 61.76 59.71 59.00 58.10 58.08 58.47 56.93 55.14 54.72 55.31 58.83 60.30 59.11 57.67 55.78 58.68 59.98 61.54
57.79 57.80 58.13 58.32 57.74 58.25 58.13 58.48 58.14 57.68 58.38 58.48 57.36 56.76 56.19 55.03 55.22 54.50 54.31 54.23 55.11 56.73 57.47 57.33 56.23 55.62 55.26 55.50 56.34 57.85 59.00 58.77 57.73 58.41 59.44 60.24 59.97 60.27 59.86 58.64 58.80 59.08 61.12
56.18 56.52 56.46 56.75 56.35 55.96 56.08 56.80 56.57 55.58 56.07 56.28 55.75 55.63 54.92 54.44 53.94 53.49 52.99 53.14 53.14 53.27 53.49 54.17 54.07 54.03 54.13 54.14 54.25 53.95 54.62 55.25 55.79 57.58 58.96 59.53 59.21 60.20 59.61 59.01 58.78 58.92 60.68
55.43 55.77 55.75 55.85 55.43 54.98 55.02 55.33 55.24 54.67 54.82 55.53 54.22 53.83 53.76 53.90 53.50 53.08 52.84 52.55 52.28 52.62 52.91 52.92 53.27 53.82 54.54 54.23 53.20 52.75 52.72 53.17 52.91 53.08 53.83 54.40 55.15 55.67 57.76 57.21 56.30 54.24 56.18
53.08 53.10 54.17 54.53 54.68 54.69 53.93 53.51 53.40 53.75 54.10 53.67 52.80 52.87 53.13 52.95 52.55 52.41 52.64 52.52 52.57 53.81 52.40 52.17 51.22 51.21 50.74 50.39 49.28 48.98 48.79 49.03 48.59 48.53 50.23 50.18 50.98 51.99 52.37 52.87 53.30 52.96 50.35
52.28 52.76 53.20 53.14 53.43 53.20 52.23 52.33 52.22 52.24 51.91 51.74 52.16 52.31 52.45 52.66 52.07 51.91 51.39 51.50 51.30 50.85 49.94 49.47 49.01 48.97 49.18 48.93 47.73 46.97 47.51 47.46 47.20 48.26 48.28 47.81 48.36 49.00 48.70 49.36 50.49 51.46 50.42
51.74 52.51 53.00 52.85 51.39 51.45 50.78 50.04 50.44 50.27 50.06 50.83 51.14 51.40 51.62 51.93 51.69 51.10 50.85 50.85 49.82 49.08 49.06 49.22 48.71 48.60 48.41 48.25 47.20 46.63 47.36 47.67 47.08 46.99 47.04 47.14 47.58 47.41 46.60 46.62 47.06 46.45 47.30
51.83 53.02 52.48 51.14 50.29 49.53 49.57 48.89 48.81 49.44 49.36 50.22 50.93 50.90 50.70 50.64 50.39 49.92 49.97 50.22 48.65 48.54 48.68 49.02 48.87 49.06 49.31 48.63 47.38 47.31 48.22 47.75 47.50 47.28 46.90 47.49 48.99 46.35 45.86 46.02 45.16 44.71 45.17
49.34 48.86 49.29 48.48 48.17 48.16 48.07 48.16 48.30 48.02 48.65 49.20 48.97 49.34 49.67 49.80 49.10 49.05 49.20 49.79 48.31 47.60 48.16 48.30 48.12 48.60 48.86 47.99 47.55 47.48 47.95 47.87 48.25 47.80 47.28 47.33 48.06 47.52 46.58 45.83 44.95 45.43 46.09
48.03 47.64 47.22 47.50 47.82 47.22 47.35 47.00 46.78 47.04 47.41 48.01 47.30 47.49 48.01 49.10 48.44 48.64 48.16 47.64 48.07 47.85 47.97 48.21 48.53 48.90 48.53 48.33 48.56 47.99 46.59 46.35 47.07 47.19 47.27 47.21 47.42 47.09 46.68 46.40 46.13 46.02 44.88
47.73 46.95 46.03 45.77 45.14 45.51 45.33 45.70 45.62 45.91 45.89 45.83 45.34 46.06 47.46 47.49 47.49 47.29 47.16 47.24 46.89 47.49 48.20 48.15 47.66 47.29 48.14 48.71 47.73 48.43 48.29 47.83 47.31 47.55 47.39 47.21 48.17 49.92 49.32 47.47 47.14 47.03 45.52
46.24 46.50 46.21 44.95 44.23 43.99 43.49 43.75 43.47 43.69 44.66 44.51 44.49 44.60 44.57 45.46 45.63 45.99 45.92 45.34 45.36 46.12 46.54 46.77 46.66 46.51 48.00 46.89 47.17 48.44 48.02 48.33 47.58 46.93 47.62 47.68 48.93 49.13 49.97 50.32 50.46 49.38 46.02
45.59 44.61 43.47 42.75 41.99 41.78 42.10 41.14 41.58 42.36 42.50 41.57 42.95 43.20 43.19 43.43 43.48 44.67 44.67 44.06 44.16 45.33 45.69 45.40 47.73 46.63 46.27 45.85 45.46 46.83 47.79 47.62 46.92 47.55 47.86 48.19 49.16 49.28 48.62 48.54 48.85 48.54 48.24
43.92 42.81 42.43 40.89 40.52 40.58 40.90 41.27 41.38 40.23 40.19 39.51 40.22 41.46 41.14 41.52 42.71 42.83 43.20 43.56 44.07 44.85 45.13 46.75 48.35 46.67 47.79 46.31 44.74 44.87 45.63 45.33 45.63 46.55 46.99 47.31 47.84 48.85 48.50 48.01 47.70 47.30 47.23
42.27 41.75 41.62 40.62 39.48 39.64 40.21 39.83 38.52 37.82 38.07 38.13 38.35 39.37 39.73 40.38 40.81 41.69 44.21 43.35 43.81 45.28 45.76 45.88 46.58 45.98 46.47 45.11 42.83 42.80 42.48 42.79 43.83 45.45 46.21 46.08 46.05 45.28 43.60 47.28 46.83 47.00 46.95
42.97 41.83 41.50 39.36 38.19 37.60 38.18 37.29 36.20 36.03 36.00 37.14 37.26 38.18 40.27 41.62 41.88 43.41 43.82 45.54 45.71 46.57 47.67 46.67 45.59 45.92 44.70 42.49 41.52 41.36 40.40 40.22 41.70 42.49 43.97 44.55 44.24 42.79 41.80 43.86 46.44 46.11 46.59
42.15 40.90 38.96 36.97 36.55 36.69 36.27 35.14 34.99 34.79 38.42 36.73 36.58 38.23 39.94 39.08 41.76 42.11 43.49 44.50 45.04 43.64 44.19 43.33 43.45 43.89 42.03 41.11 40.44 40.11 38.78 39.48 39.64 41.24 43.33 46.47 44.55 43.24 42.23 41.73 44.87 46.41 47.98
40.74 39.90 37.75 36.39 35.96 35.93 34.94 33.42 33.19 35.75 39.67 35.90 35.37 36.78 37.80 38.53 40.57 41.40 41.51 40.72 40.97 40.33 39.16 39.67 39.37 39.34 39.14 40.37 39.45 38.41 38.61 39.48 40.01 41.60 45.62 49.26 45.41 42.59 41.73 41.50 41.82 41.00 43.10
39.69 39.31 37.47 36.44 35.66 34.95 34.06 32.27 33.19 35.51 36.76 35.28 34.45 35.68 37.19 38.35 40.18 39.23 36.69 35.42 36.99 36.70 37.27 37.93 35.02 34.80 38.00 38.59 38.61 37.91 38.14 39.69 41.75 45.07 45.55 43.71 43.90 46.04 45.41 43.52 40.28 40.07 44.62
36.30 35.94 35.07 34.24 33.32 33.79 34.34 33.35 34.56 35.77 35.67 34.47 35.10 36.92 36.43 36.99 37.73 39.02 38.62 35.93 35.32 34.40 35.87 35.45 33.73 33.23 36.18 36.47 36.55 36.65 37.78 40.20 41.50 44.09 47.91 46.19 45.55 45.67 47.88 46.07 46.46 46.43 46.25
34.80 34.45 33.36 33.03 33.04 33.36 33.09 32.93 33.86 33.93 33.64 34.36 36.22 36.18 36.44 36.79 36.78 36.90 37.90 36.70 36.90 35.65 34.81 35.31 34.60 33.95 34.03 34.85 36.14 35.59 36.85 38.37 39.22 42.71 44.19 43.94 44.92 44.10 45.17 46.04 48.30 51.25 49.75
33.47 32.88 32.42 32.40 32.69 33.23 32.54 32.58 33.17 33.42 32.87 33.40 33.72 33.56 34.50 35.63 36.07 35.75 36.39 37.63 37.11 36.79 35.90 35.74 35.41 35.74 35.79 35.69 35.55 35.70 36.27 36.68 37.74 40.48 40.37 40.36 40.44 41.70 41.14 42.06 41.80 44.01 46.04
MSLP
1002.18 1003.10 1004.15 1005.07 1006.23 1007.49 1008.00 1007.79 1007.90 1008.23 1008.83 1009.32 1009.83 1010.15 1010.14 1010.00 1010.39 1010.93 1010.80 1011.17 1011.40 1011.64 1011.91 1012.38 1012.86 1013.05 1013.56 1013.95 1013.94 1014.29 1014.48 1014.55 1014.21 1014.14 1014.15 1013.28 1013.16 1012.71 1011.93 1012.47 1012.54 1011.73 1010.80
1002.77 1003.44 1004.39 1005.36 1006.13 1006.80 1007.58 1007.82 1007.89 1008.22 1008.74 1009.16 1009.59 1009.61 1009.83 1010.23 1010.33 1010.74 1010.83 1011.06 1011.22 1011.47 1011.94 1012.53 1012.81 1013.17 1013.74 1014.01 1014.15 1014.07 1014.31 1014.23 1014.08 1014.42 1014.44 1014.13 1013.29 1012.65 1012.38 1012.09 1012.12 1011.64 1011.34
1003.42 1004.14 1004.79 1005.44 1006.02 1006.65 1007.34 1007.82 1008.01 1008.06 1008.44 1008.56 1008.99 1009.64 1009.94 1010.60 1011.24 1011.70 1011.77 1011.54 1011.49 1011.67 1011.95 1012.29 1012.64 1013.01 1013.44 1013.89 1014.05 1014.17 1014.34 1014.53 1014.03 1014.19 1014.33 1014.23 1014.09 1013.50 1012.07 1011.91 1011.40 1011.61 1011.02
1004.17 1004.78 1005.57 1006.18 1006.66 1007.02 1007.53 1008.07 1008.32 1008.70 1008.73 1009.09 1009.49 1010.13 1010.82 1011.63 1012.29 1012.58 1012.42 1012.47 1012.12 1012.02 1012.14 1012.24 1012.37 1013.06 1013.70 1014.03 1014.05 1014.05 1014.28 1014.48 1014.38 1014.14 1013.93 1013.95 1014.26 1014.13 1012.92 1011.57 1011.17 1011.06 1010.90
1004.40 1005.39 1006.11 1006.74 1007.22 1007.93 1008.12 1008.67 1008.97 1009.31 1009.52 1009.99 1010.13 1010.67 1011.62 1012.08 1012.71 1013.14 1013.04 1013.13 1013.04 1012.90 1013.02 1013.17 1013.29 1013.79 1014.03 1014.23 1014.42 1014.55 1014.60 1014.43 1014.36 1014.38 1014.01 1013.70 1013.58 1013.81 1013.74 1012.40 1010.89 1010.16 1009.61
1005.27 1006.22 1007.01 1007.47 1007.98 1008.58 1008.91 1009.25 1009.21 1010.42 1010.29 1010.44 1011.10 1011.46 1012.10 1012.92 1013.37 1013.80 1014.07 1014.21 1014.07 1013.96 1014.01 1013.92 1014.09 1014.29 1014.32 1014.54 1014.55 1014.51 1014.34 1014.13 1013.90 1013.65 1013.69 1013.64 1013.47 1013.02 1012.77 1012.24 1011.41 1010.22 1008.95
1006.03 1006.45 1007.30 1008.20 1008.73 1009.06 1009.47 1009.66 1009.86 1010.74 1010.86 1011.16 1011.62 1011.97 1012.50 1013.12 1013.58 1014.16 1014.50 1014.69 1014.88 1015.03 1014.92 1014.69 1014.70 1014.72 1014.71 1014.58 1014.48 1014.46 1014.21 1014.07 1013.90 1013.68 1013.52 1013.32 1013.16 1012.90 1012.58 1012.03 1011.18 1010.06 1008.93
1006.61 1007.19 1007.77 1008.41 1009.21 1009.83 1010.31 1010.78 1011.08 1011.23 1011.73 1011.91 1012.38 1012.71 1013.08 1013.54 1014.00 1014.24 1014.50 1014.79 1014.89 1014.90 1014.92 1014.80 1014.66 1014.66 1014.50 1014.57 1014.57 1014.53 1014.51 1014.32 1014.09 1013.89 1013.68 1013.44 1012.98 1012.66 1012.50 1012.17 1011.68 1010.35 1009.28
1006.53 1007.44 1008.28 1009.13 1009.79 1010.40 1010.95 1011.12 1011.73 1011.97 1012.39 1012.56 1012.83 1013.30 1013.64 1014.01 1014.37 1014.50 1014.53 1014.54 1014.48 1014.54 1014.65 1014.65 1014.73 1014.83 1014.87 1014.86 1014.84 1014.77 1014.57 1014.31 1014.06 1013.88 1013.60 1013.38 1012.91 1012.52 1012.18 1011.86 1011.55 1011.11 1009.50
1006.58 1007.44 1008.41 1009.00 1010.05 1010.44 1011.02 1011.59 1012.06 1012.42 1012.59 1012.82 1013.15 1013.59 1013.92 1014.13 1014.24 1014.33 1014.51 1014.46 1014.49 1014.56 1014.68 1014.79 1014.88 1014.86 1014.77 1014.69 1014.67 1014.57 1014.28 1014.13 1013.80 1013.46 1013.10 1012.85 1012.44 1012.03 1011.71 1011.47 1011.09 1010.84 1010.18
1007.11 1007.54 1008.08 1009.07 1010.36 1011.14 1011.60 1012.19 1012.67 1013.02 1013.09 1013.21 1013.49 1013.78 1014.10 1014.25 1014.29 1014.34 1014.37 1014.35 1014.39 1014.44 1014.50 1014.54 1014.56 1014.57 1014.41 1014.30 1014.36 1014.23 1013.95 1013.82 1013.46 1012.99 1012.75 1012.23 1011.72 1011.38 1011.09 1010.87 1010.71 1010.50 1010.17
1007.22 1007.66 1007.27 1009.51 1011.28 1012.18 1012.44 1012.81 1013.11 1013.49 1013.81 1013.80 1013.92 1014.11 1014.16 1014.21 1014.15 1014.20 1014.30 1014.34 1014.29 1014.32 1014.42 1014.52 1014.57 1014.47 1014.23 1014.13 1014.05 1013.91 1013.59 1013.30 1012.85 1012.44 1012.17 1011.63 1011.15 1010.75 1010.41 1010.26 1010.06 1009.74 1009.32
1007.93 1008.43 1008.77 1010.68 1012.10 1012.65 1012.99 1013.32 1013.55 1013.79 1014.05 1014.16 1014.43 1014.51 1014.36 1014.21 1014.26 1014.39 1014.34 1014.30 1014.32 1014.44 1014.62 1014.71 1014.59 1014.29 1014.00 1013.80 1013.58 1013.37 1013.03 1012.61 1012.26 1011.98 1011.48 1010.88 1010.48 1010.05 1009.87 1009.57 1009.24 1008.89 1008.49
1009.04 1009.59 1010.60 1011.78 1012.96 1013.47 1013.63 1013.92 1013.99 1014.15 1014.29 1014.41 1014.59 1014.63 1014.60 1014.41 1014.36 1014.30 1014.38 1014.58 1014.63 1014.66 1014.66 1014.50 1014.22 1013.87 1013.59 1013.41 1013.11 1012.81 1012.46 1012.06 1011.57 1011.12 1010.62 1010.05 1009.66 1009.24 1008.86 1008.66 1008.43 1008.32 1008.06
1010.27 1011.00 1011.98 1012.98 1013.74 1014.07 1014.45 1014.50 1014.72 1014.80 1014.85 1014.93 1015.04 1015.06 1014.86 1014.68 1014.57 1014.62 1014.73 1014.67 1014.62 1014.56 1014.37 1014.08 1013.62 1013.33 1013.24 1012.90 1012.50 1012.06 1011.58 1011.04 1010.51 1009.93 1009.42 1008.95 1008.47 1007.92 1007.63 1007.43 1007.02 1007.00 1006.91
1011.41 1012.02 1012.82 1013.68 1014.37 1014.89 1015.15 1015.33 1015.46 1015.59 1015.49 1015.52 1015.69 1015.64 1015.55 1015.38 1015.17 1014.89 1014.77 1014.66 1014.53 1014.21 1013.85 1013.41 1013.17 1012.99 1012.70 1012.22 1011.88 1011.50 1010.96 1010.38 1009.78 1009.14 1008.45 1007.87 1007.25 1006.62 1006.25 1005.95 1005.76 1005.62 1005.77
1012.23 1012.96 1013.82 1014.59 1015.26 1015.61 1015.56 1015.90 1016.00 1016.10 1016.16 1016.20 1016.18 1016.04 1015.89 1015.76 1015.52 1015.16 1014.86 1014.65 1014.35 1013.88 1013.49 1013.15 1012.77 1012.55 1012.26 1011.82 1011.40 1011.06 1010.72 1009.91 1009.04 1008.27 1007.41 1006.59 1005.87 1005.32 1004.91 1004.57 1004.45 1004.35 1004.42
1013.36 1014.25 1014.80 1015.52 1015.84 1015.75 1015.94 1016.08 1016.28 1016.61 1016.69 1016.73 1016.58 1016.35 1016.18 1015.99 1015.68 1015.27 1014.84 1014.47 1014.07 1013.68 1013.25 1012.92 1012.60 1012.41 1011.98 1011.47 1011.20 1010.95 1010.15 1009.42 1008.26 1007.26 1006.34 1005.64 1004.87 1004.04 1003.45 1003.29 1003.20 1003.11 1003.02
1014.27 1014.94 1015.28 1015.67 1016.05 1016.20 1016.44 1016.69 1017.05 1017.23 1017.32 1017.28 1017.07 1016.78 1016.50 1016.12 1015.70 1015.21 1014.70 1014.27 1013.91 1013.32 1012.92 1012.69 1012.44 1012.18 1011.68 1011.36 1011.16 1010.74 1009.97 1008.81 1007.59 1006.77 1005.59 1004.92 1004.06 1003.18 1002.73 1002.55 1002.02 1001.79 1001.61
1014.48 1015.10 1015.85 1016.01 1016.88 1017.33 1017.25 1017.54 1017.88 1017.95 1017.91 1017.63 1017.30 1016.90 1016.38 1015.98 1015.54 1015.04 1014.55 1014.00 1013.57 1013.10 1012.64 1012.45 1012.20 1011.92 1011.66 1011.31 1010.97 1010.69 1010.00 1008.76 1007.56 1006.07 1004.87 1003.82 1003.12 1002.14 1001.58 1001.75 1001.28 1000.69 1000.28
1015.19 1015.98 1016.48 1017.23 1017.64 1017.68 1017.85 1018.25 1018.33 1018.30 1018.02 1017.83 1017.43 1016.85 1016.39 1016.07 1015.44 1015.02 1014.49 1013.97 1013.43 1013.27 1013.08 1012.83 1012.34 1012.13 1011.83 1011.24 1010.84 1010.54 1010.00 1009.02 1007.46 1006.13 1004.48 1003.03 1001.95 1001.13 1000.44 1000.10 1000.01 999.41 999.23
1016.08 1016.73 1017.18 1017.70 1017.90 1018.11 1018.35 1018.77 1018.75 1018.42 1017.99 1017.92 1017.54 1016.96 1016.54 1016.18 1015.61 1015.13 1014.82 1014.42 1014.06 1013.79 1013.48 1013.10 1012.77 1012.44 1012.02 1011.42 1010.67 1009.96 1009.46 1008.59 1007.42 1005.71 1004.24 1002.65 1001.30 1000.30 999.61 999.23 998.71 998.64 998.93
1016.53 1017.03 1017.45 1018.05 1018.41 1018.59 1018.69 1019.02 1018.81 1018.49 1018.18 1017.95 1017.46 1017.03 1016.61 1016.17 1015.69 1015.43 1015.20 1014.91 1014.63 1014.32 1013.93 1013.58 1013.42 1012.98 1012.04 1011.43 1010.72 1009.64 1008.62 1007.33 1006.37 1005.19 1004.16 1002.72 1001.14 999.67 998.93 998.63 998.35 998.30 998.30
1017.12 1017.56 1018.00 1018.53 1018.98 1018.92 1018.85 1018.81 1018.57 1018.32 1018.20 1017.90 1017.57 1017.25 1016.80 1016.43 1016.09 1015.82 1015.58 1015.32 1015.18 1014.90 1014.59 1014.33 1013.94 1013.34 1012.63 1012.04 1011.18 1010.06 1008.72 1007.34 1006.03 1005.09 1003.84 1002.63 1001.38 1000.53 999.49 998.66 997.76 997.58 997.38
1017.79 1018.06 1018.48 1018.86 1019.16 1019.11 1019.02 1018.84 1018.63 1018.40 1018.16 1017.83 1017.65 1017.53 1017.17 1016.85 1016.54 1016.29 1016.05 1015.87 1015.72 1015.75 1015.36 1014.85 1014.50 1013.95 1013.34 1012.73 1012.15 1011.13 1009.67 1008.41 1007.16 1005.67 1004.22 1003.15 1002.35 1001.54 1000.45 999.46 998.52 997.39 996.70
1018.44 1018.77 1019.00 1019.18 1019.35 1019.29 1019.18 1018.91 1018.56 1018.31 1018.01 1017.69 1017.54 1017.43 1017.28 1017.24 1017.02 1016.71 1016.36 1016.15 1016.08 1016.01 1015.67 1015.25 1014.93 1014.39 1013.93 1012.90 1011.76 1010.74 1009.52 1008.58 1007.24 1006.00 1005.15 1004.89 1004.16 1003.15 1002.37 1001.08 999.85 998.53 997.38
Wind_Speed
12 12 18 19 15 11 11 10 10 8 7 3 4 2 4 1 2 5 7 5 4 4 1 4 4 4 4 4 5 3 4 4 2 2 3 5 8 5 6 5 9 10 10
3 9 13 12 14 15 12 8 8 9 8 3 3 3 3 3 4 4 5 3 4 4 3 3 3 5 4 5 5 4 2 1 4 3 2 4 4 6 8 5 8 12 7
12 14 16 14 13 13 14 6 5 6 4 6 4 4 5 4 4 4 3 6 6 2 4 4 4 4 3 3 3 3 3 3 2 5 3 1 4 3 2 7 8 12 8
14 15 15 15 11 9 11 10 8 7 7 7 5 4 4 5 2 2 4 7 9 9 8 7 2 3 2 3 3 2 3 2 4 2 4 3 1 2 5 3 5 8 10
18 16 16 15 12 9 9 9 11 10 9 10 7 8 10 5 4 4 8 7 8 8 9 9 8 5 3 2 2 4 5 3 2 3 2 2 3 6 7 10 8 5 9
17 16 14 13 10 9 10 9 13 9 9 11 8 9 10 7 7 5 5 4 4 5 7 7 6 5 4 3 3 4 4 4 4 3 5 6 6 6 5 8 10 12 14
13 16 15 13 11 10 8 8 11 9 9 11 10 9 10 9 8 6 4 5 3 2 3 3 4 2 2 4 4 4 5 5 4 6 6 5 6 6 7 9 9 11 11
13 13 12 12 11 8 9 8 9 9 8 10 9 7 8 5 4 4 4 4 3 4 2 4 4 5 6 5 5 3 4 5 5 6 5 5 5 4 4 5 7 11 10
16 17 15 13 12 11 8 9 8 8 8 8 7 7 7 7 6 5 4 3 3 3 6 6 6 5 4 3 3 3 5 4 4 5 5 4 4 4 4 4 3 6 11
19 18 16 15 11 11 8 8 7 8 7 8 6 6 6 6 6 5 4 4 4 4 5 3 2 3 3 4 4 4 5 6 5 5 6 7 6 5 4 5 7 6 9
16 17 15 13 9 7 8 8 8 7 7 6 4 6 5 5 5 5 3 4 4 3 2 1 3 4 5 6 5 6 7 8 8 8 9 11 8 7 7 5 5 8 9
17 16 18 15 9 9 10 10 8 8 6 6 5 5 4 4 4 3 2 3 3 1 2 3 4 5 6 6 6 7 8 9 10 10 9 11 9 10 8 7 10 9 8
13 14 16 14 10 9 9 10 9 8 7 7 6 4 2 2 2 2 2 4 3 1 3 4 5 6 6 6 7 7 9 8 8 9 9 12 12 12 9 9 10 9 8
12 15 15 13 10 8 9 9 9 8 7 7 7 7 6 4 3 3 0 5 4 4 3 4 6 6 6 6 7 6 6 8 9 10 11 12 13 13 13 11 12 11 10
12 13 13 11 8 9 8 9 8 8 6 6 7 8 8 7 7 7 6 5 4 2 4 5 6 5 5 6 7 9 10 11 12 12 12 13 17 24 20 11 13 12 11
12 13 13 12 11 9 8 8 7 7 6 7 7 7 7 7 7 6 6 5 5 5 5 6 6 6 6 11 14 13 11 12 13 14 14 14 22 21 26 27 28 20 14
12 12 12 11 8 7 7 7 6 6 7 7 7 8 7 7 6 6 5 5 6 6 7 6 7 7 7 13 14 15 10 11 13 14 14 14 13 20 17 21 24 24 25
13 10 10 9 6 6 7 6 7 9 8 7 7 7 8 8 7 6 6 6 5 6 5 7 7 6 8 13 13 12 12 12 14 14 16 15 16 17 17 16 16 15 15
10 10 9 9 7 8 7 8 8 7 7 7 8 8 7 7 7 6 7 7 6 7 5 5 7 8 9 10 14 12 12 13 15 13 15 15 17 21 19 14 17 16 15
11 11 9 11 9 6 7 8 7 6 6 7 7 7 8 7 8 8 8 8 7 7 6 6 6 9 7 12 13 10 10 12 10 15 15 20 18 23 22 14 14 15 16
11 8 8 7 6 6 7 6 4 4 4 5 6 8 7 8 7 7 7 7 7 5 6 6 7 6 9 13 19 18 11 9 11 10 12 12 22 24 23 21 13 14 13
8 8 8 6 6 6 7 5 4 5 4 5 5 7 7 6 7 7 7 8 8 8 6 7 7 8 10 15 18 24 19 16 10 12 11 14 24 23 15 13 16 15 13
9 7 7 7 5 5 6 4 3 4 5 5 6 6 7 7 7 6 5 5 6 6 7 7 7 8 9 10 21 23 24 22 15 10 18 20 21 21 9 9 11 9 6
9 6 7 7 5 4 4 2 2 4 5 4 5 7 7 8 7 5 4 5 7 7 7 6 7 8 9 10 13 13 14 19 15 17 11 14 18 18 15 8 5 3 5
6 6 6 7 5 4 5 4 5 5 5 4 3 3 3 6 6 5 4 5 6 6 6 6 6 7 9 12 16 15 11 13 14 12 9 14 14 16 15 14 15 9 5
6 7 7 7 5 6 5 6 6 5 5 5 4 2 2 2 3 4 4 2 3 4 7 9 8 7 12 19 22 22 19 21 22 10 12 13 13 14 15 15 15 13 16
Wind_Direction
223 140 160 172 162 162 181 191 184 162 152 127 168 187 210 208 102 150 147 146 165 181 144 109 106 88 109 163 164 147 187 233 238 62 265 274 255 238 213 257 277 270 243
103 116 152 146 151 155 164 163 171 153 168 150 164 165 134 93 58 53 49 53 97 129 162 163 160 140 135 158 183 174 205 300 196 211 50 307 327 255 254 235 253 257 259
124 113 118 120 135 147 156 132 108 105 104 151 106 60 63 58 56 30 33 19 47 97 153 168 164 165 154 197 197 231 184 256 264 205 170 55 257 310 263 237 222 240 222
105 108 108 103 109 96 96 94 95 89 73 83 89 95 110 104 75 68 62 56 51 49 45 36 109 130 141 205 230 259 236 230 261 320 210 216 194 294 310 280 257 239 255
122 112 104 102 97 93 101 100 82 69 71 76 79 97 90 86 80 75 77 65 53 50 52 50 51 64 56 354 276 268 243 233 252 194 321 253 213 232 242 275 275 257 238
112 102 101 103 99 105 99 90 94 82 79 86 76 89 102 100 90 70 77 63 58 44 45 51 56 53 50 27 351 334 316 276 260 262 253 256 268 259 245 250 263 262 274
114 118 118 114 109 99 91 92 89 88 83 83 79 81 86 89 94 94 93 94 93 85 73 77 65 38 355 350 350 336 331 323 310 306 300 295 282 292 293 292 282 268 269
129 121 116 111 108 93 87 90 91 91 85 92 88 85 89 88 92 101 107 110 118 131 108 68 47 21 17 12 12 358 339 341 329 309 303 294 292 298 297 290 303 296 287
129 122 117 109 109 105 99 99 92 87 92 99 93 91 101 106 115 113 109 106 89 70 49 50 48 34 23 9 350 316 305 308 288 281 273 275 277 283 283 272 257 272 290
126 122 119 114 109 107 103 94 97 106 111 106 105 111 118 116 113 101 97 95 85 83 83 67 34 326 301 292 289 284 280 281 278 273 272 281 283 267 277 289 291 282 291
132 130 124 105 95 91 91 87 78 76 66 80 95 107 115 117 113 112 115 112 121 127 119 334 311 302 293 285 271 265 264 259 261 266 269 271 262 267 268 262 263 272 276
135 141 112 105 96 93 86 84 76 67 53 55 72 95 112 113 109 115 125 145 155 181 261 284 298 293 286 276 266 265 270 262 266 257 257 265 272 264 255 261 265 260 264
106 102 95 102 103 95 85 73 67 62 47 45 42 29 57 134 171 191 179 182 195 288 332 317 293 278 267 265 261 256 263 260 261 262 263 276 273 268 264 265 267 272 276
96 103 100 102 99 89 78 70 61 49 36 30 22 6 336 307 269 234 80 38 57 45 341 285 271 273 276 279 274 270 271 272 273 268 265 269 265 259 262 260 257 257 258
119 114 108 101 93 80 73 60 49 39 30 29 17 2 360 11 33 44 62 44 23 329 277 277 289 292 291 289 290 292 291 287 283 274 267 261 257 260 256 254 256 256 257
124 108 97 90 80 73 69 61 46 27 27 25 31 26 14 10 14 20 18 359 330 304 308 302 296 297 296 289 291 295 295 288 284 284 276 265 266 263 257 252 249 246 254
113 101 93 88 85 82 72 58 50 33 44 33 23 17 7 360 348 340 339 337 324 314 301 310 306 297 284 287 288 297 304 298 288 282 279 277 270 268 258 249 245 245 244
108 100 100 95 85 71 60 55 47 40 31 21 7 3 359 344 337 329 327 325 309 302 306 304 313 308 304 306 325 319 317 303 285 280 278 280 280 276 263 251 246 242 240
112 112 106 95 78 60 51 55 47 35 18 9 351 348 335 324 320 314 320 309 296 301 298 292 307 309 311 327 335 337 321 300 295 297 293 285 282 277 275 265 243 240 244
105 103 102 78 67 55 59 60 40 24 1 354 336 327 324 329 319 313 314 307 302 291 308 309 310 315 324 331 330 332 324 304 308 306 300 296 282 278 276 270 265 244 243
114 102 96 111 113 85 75 60 38 18 341 333 326 336 337 324 311 318 310 327 327 327 344 328 327 334 340 331 328 334 324 309 309 304 304 305 303 293 280 262 251 249 249
116 119 115 108 96 89 85 66 29 329 337 336 329 342 338 328 324 327 4 350 352 359 336 337 354 342 334 332 330 330 325 324 315 305 305 314 312 301 295 288 265 244 244
106 104 104 105 100 105 104 94 297 331 340 348 340 360 349 342 348 10 8 356 2 353 346 10 350 332 341 335 338 333 337 337 332 322 310 307 329 336 306 310 279 265 249
95 97 95 103 106 105 96 136 309 344 4 360 356 15 8 356 356 3 9 18 17 360 343 3 346 341 343 341 343 339 335 338 343 337 330 348 357 356 348 308 274 228 220
87 81 82 89 98 73 55 20 357 349 335 336 334 353 3 5 357 1 6 26 26 17 10 2 353 349 347 343 341 335 331 344 330 327 359 10 3 359 353 351 350 328 250
86 77 76 85 71 60 33 1 350 349 340 331 319 270 318 333 326 343 341 8 30 25 25 10 4 4 352 348 354 351 348 2 354 13 21 9 1 3 350 349 344 343 344